Showing default

XSAT, 37389

Orbit data source: Space-Track

XSAT, 37389 is a payload satellite owned by NTU (SG) in SSO that was launched on Wed, 20 Apr 2011 UTC via a PSLV launch vehicle from the Sirharikota (SRI). Payload-class satellites include a variety of spacecraft equipped with specific instruments for various scientific and technological missions. These include communications satellites like Starlink; space stations such as the ISS; scientific satellites like the Hubble; Earth observation satellites from companies like Planet Labs, Umbra, and HawkEye 360; GPS; miniature CubeSats for education and research; and military/defense satellites.

Loading next visibility...
Identifier
37389, 2011-015C
Orbit
SSO
Country
Flag of UnknownUnknown / SING
Related business
Manufacturer
SatRec Initiative
Mission
Operational Civil Imaging
Bus & Motor
SATREC, Unknown motor
Mass
105 kg wet, 105 kg dry
Launch date (UTC)
2011-04-20 (15 years ago)
Launch vehicle
PSLV
Launch site
Sirharikota (SRI)
Object type
Payload
Rocket body
Debris
Shape & HBR
Box + 2 Pan, Unknown HBR
Radar Cross Section
0.870 m², Medium (>0.1 m² and < 1m²)

Expand to show TLE details & history
Last TLE update: 16 hours ago

TLE from 16 hours ago
0 XSAT
1 37389U 11015C   25348.93190267  .00000379  00000-0  17885-3 0  9998
2 37389  98.3312 329.9612 0014278 159.4417 200.7341 14.25130946761436
Epoch: 2025-12-14T22:21Z
TLE epoch observation values (Epoch: 2025-12-14T22:21:56.390Z)
Latitude
-0.00002°
Longitude
-89.36149°
Altitude
820.585 km
Speed
7.438 km/s
True Right ascension
21h 59m 50s
True Declination
0° 00' 00"
Sunlit
Object was in daylight at epoch
Visualization orbit readout
Latitude
Unknown
Longitude
Unknown
Altitude
Unknown
Speed
Unknown
Apparent Right ascension
Unknown
Apparent Declination
Unknown
Sunlit
N/A
Visualization observer readout
Local Sidereal Time
13:24:50
Azimuth
Unknown
Elevation
Unknown
Doppler factor
Unknown
Orbital elements
Apogee altitude
815.443 km
Perigee altitude
794.93 km
Semi-major axis
7,183.323 km
Eccentricity
0.00143
Inclination
98.3312°
RAAN
329.9612°
Arg. of periapsis
159.4417°
True anomaly
200.67627°
Mean anomaly
200.7341°
Eccentric anomaly
200.70518°
Mean motion
3.56496 °/min
Orbital period
100.98 mins
BSTAR
0.00017885
Loading maneuver chart data...
Computing Atmospheric mass density...
Loading historical data...
Loading historical data...
Loading historical data...
Loading historical data...
Loading historical data...
Loading historical data...
Loading historical data...
Other satellites on launch #15 in the year 2011 (2011-04-20 UTC)

Documentation

Showing up to 5 results
|